1513058400.94,40142,5.31,72106.8,-2.01,-3.19,-3.15,0,*5C
1513058402.13,40143,5.31,72096.0,-2.01,-3.07,-3.07,0,*51
1513058403.36,40144,5.31,72092.3,-1.99,-2.95,-2.83,0,*53
1513058404.58,40145,5.31,72078.8,-1.99,-2.91,-2.95,0,*51
1513058405.81,40146,5.31,72096.8,-1.99,-2.95,-3.03,0,*58
1513058407.01,40147,5.31,72156.0,-2.01,-2.95,-2.95,0,*55
1513058408.19,40148,5.31,72100.8,-2.01,-2.83,-2.91,0,*59
1513058409.39,40149,5.31,72150.3,-2.01,-3.07,-3.07,0,*5B
1513058410.61,40150,5.31,72120.8,-1.99,-3.03,-3.07,0,*55
1513058411.8,40151,5.31,72048.0,-2.01,-3.07,-3.07,0,*52
1513058413.03,40152,5.31,72086.3,-1.99,-2.95,-2.95,0,*53
1513058414.23,40153,5.31,72116.3,-2.01,-2.95,-2.95,0,*50
1513058415.45,40154,5.31,72110.5,-1.99,-2.83,-2.83,0,*55
1513058416.67,40155,5.31,72096.3,-1.95,-2.79,-2.87,0,*59
1513058417.89,40156,5.31,72096.0,-1.99,-3.07,-3.07,0,*57
1513058419.11,40157,5.31,72130.0,-1.99,-3.03,-2.95,0,*58
1513058420.3,40158,5.31,72134.0,-2.01,-2.83,-2.83,0,*5B
1513058421.51,40159,5.31,72142.5,-1.99,-2.79,-2.79,0,*58
1513058422.73,40160,5.31,72100.8,-1.99,-2.79,-2.79,0,*52
1513058423.96,40161,5.31,72114.0,-1.99,-2.95,-3.03,0,*5D
1513058425.18,40162,5.31,72140.3,-1.99,-2.91,-2.95,0,*54
1513058426.39,40163,5.31,72112.5,-1.99,-2.83,-2.91,0,*52
1513058427.61,40164,5.31,72136.0,-1.99,-2.91,-2.83,0,*55
1513058428.79,40165,5.31,72158.0,-2.01,-2.83,-2.83,0,*55
1513058430.04,40166,5.31,72156.8,-1.99,-2.75,-2.79,0,*58
1513058431.23,40167,5.31,72148.0,-2.01,-2.79,-2.79,0,*57
1513058432.45,40168,5.31,72146.5,-1.99,-2.79,-2.83,0,*5F
1513058433.63,40169,5.31,72154.3,-1.97,-2.87,-2.79,0,*54
1513058434.84,40170,5.31,72146.5,-1.99,-2.83,-2.91,0,*50
1513058436.06,40171,5.31,72144.0,-1.99,-2.83,-2.83,0,*52
1513058437.28,40172,5.31,72132.3,-1.99,-2.83,-2.83,0,*51
1513058438.5,40173,5.31,72132.0,-1.99,-2.79,-2.83,0,*55
1513058439.74,40174,5.31,72142.8,-1.99,-2.79,-2.75,0,*5B
1513058440.96,40175,5.31,72136.0,-1.99,-2.79,-2.79,0,*56
1513058442.18,40176,5.31,72122.3,-1.99,-2.79,-2.79,0,*55
1513058443.41,40177,5.31,72110.5,-1.99,-2.95,-2.95,0,*54
1513058444.62,40178,5.31,72100.0,-1.97,-2.71,-2.79,0,*5D
1513058445.84,40179,5.31,72096.0,-1.99,-2.79,-2.79,0,*5A
1513058447.09,40180,5.31,72064.3,-1.99,-2.79,-2.75,0,*50
1513058448.3,40181,5.31,72074.0,-1.99,-2.79,-2.79,0,*5D
1513058449.53,40182,5.31,72070.8,-1.99,-2.95,-2.95,0,*5E
1513058450.75,40183,5.31,72096.0,-1.99,-2.83,-2.83,0,*5F
1513058451.94,40184,5.31,72096.0,-1.97,-2.87,-2.87,0,*56
1513058453.13,40185,5.31,72102.8,-1.97,-2.91,-2.99,0,*5F
1513058454.35,40186,5.31,72160.5,-1.99,-3.03,-2.95,0,*54
1513058455.56,40187,5.31,72158.3,-1.99,-2.83,-2.91,0,*58
1513058456.78,40188,5.31,72174.3,-1.99,-2.79,-2.83,0,*51
1513058458.0,40189,5.31,72166.3,-1.99,-2.79,-2.79,0,*55
1513058459.21,40190,5.31,72152.0,-1.99,-2.83,-2.79,0,*58
1513058460.43,40191,5.31,72148.5,-1.99,-2.79,-2.79,0,*5C
1513058461.64,40192,5.31,72138.3,-1.99,-2.83,-2.79,0,*5A
1513058462.86,40193,5.31,72122.8,-1.99,-2.91,-2.91,0,*5E
1513058464.04,40194,5.31,72126.5,-1.97,-2.79,-2.79,0,*57
1513058465.29,40195,5.31,72134.8,-1.99,-2.75,-2.79,0,*54
1513058466.5,40196,5.31,72146.0,-1.99,-2.79,-2.79,0,*5B
1513058467.72,40197,5.31,72158.8,-1.99,-2.91,-2.91,0,*5A
1513058468.93,40198,5.31,72170.0,-1.99,-2.83,-2.91,0,*56
1513058470.16,40199,5.31,72170.5,-1.99,-2.95,-2.95,0,*54
1513058471.38,40200,5.31,72156.8,-1.99,-2.95,-3.03,0,*59
1513058472.6,40201,5.31,72146.5,-1.99,-2.91,-2.95,0,*52
1513058473.82,40202,5.31,72102.8,-1.99,-3.03,-3.07,0,*51
1513058475.05,40203,5.31,72110.3,-1.99,-2.95,-2.95,0,*54
1513058476.27,40204,5.31,72108.8,-1.99,-3.03,-3.03,0,*53
1513058477.5,40205,5.31,72076.3,-1.99,-3.07,-2.95,0,*58
1513058478.72,40206,5.31,72112.0,-1.99,-3.15,-3.19,0,*5D
1513058479.93,40207,5.31,72132.8,-1.99,-3.03,-3.15,0,*57
1513058481.15,40208,5.31,72094.8,-1.99,-3.03,-3.03,0,*5F
1513058482.34,40209,5.31,72104.0,-2.01,-3.03,-3.07,0,*58
1513058483.54,40210,5.31,72108.0,-2.01,-3.03,-3.03,0,*54
1513058484.73,40211,5.31,72110.5,-2.01,-3.03,-3.03,0,*55
1513058485.92,40212,5.31,72104.3,-2.01,-3.39,-3.31,0,*5E
1513058487.12,40213,5.31,72092.8,-2.01,-3.19,-3.27,0,*5A
1513058488.33,40214,5.31,72090.8,-1.99,-3.19,-3.19,0,*52
1513058489.52,40215,5.31,72084.0,-2.01,-3.19,-3.19,0,*51
1513058490.71,40216,5.31,72098.5,-2.01,-3.07,-3.15,0,*51
1513058491.9,40217,5.31,72102.3,-2.01,-3.15,-3.15,0,*53
1513058493.09,40218,5.31,72102.5,-2.01,-3.03,-3.03,0,*5C
1513058494.29,40219,5.31,72084.5,-2.01,-3.15,-3.19,0,*51
1513058495.48,40220,5.31,72058.0,-2.01,-3.03,-2.95,0,*59
1513058496.68,40221,5.31,72044.3,-2.05,-2.87,-2.87,0,*52
1513058497.87,40222,5.38,72056.3,-2.01,-2.83,-2.83,0,*55
1513058499.06,40223,5.31,72072.8,-2.05,-2.87,-2.87,0,*50
1513058500.26,40224,5.31,72088.5,-2.05,-2.87,-2.87,0,*57
1513058501.45,40225,5.31,72096.5,-2.05,-2.83,-2.87,0,*52
1513058502.64,40226,5.31,72088.3,-2.01,-2.91,-2.91,0,*51
1513058503.82,40227,5.31,72086.3,-2.01,-2.91,-2.91,0,*50
1513058505.03,40228,5.31,72088.3,-1.99,-2.83,-2.91,0,*5E
1513058506.26,40229,5.31,72090.8,-1.99,-2.95,-3.03,0,*52
1513058507.45,40230,5.31,72082.5,-2.01,-2.91,-2.95,0,*52
1513058508.65,40231,5.31,72084.8,-2.05,-2.87,-2.95,0,*50
1513058509.85,40232,5.31,72082.3,-2.01,-3.15,-3.07,0,*57
1513058511.04,40233,5.31,72094.8,-2.01,-3.15,-3.07,0,*56
1513058512.23,40234,5.31,72084.3,-2.01,-3.07,-3.07,0,*52
1513058513.43,40235,5.31,72076.8,-2.01,-3.07,-3.07,0,*53
1513058514.62,40236,5.31,72054.5,-2.05,-3.07,-3.11,0,*53
1513058515.82,40237,5.31,72034.3,-2.01,-2.95,-2.95,0,*51
1513058517.02,40238,5.31,72050.0,-2.01,-2.95,-3.07,0,*54
1513058518.22,40239,5.31,72056.0,-2.01,-2.95,-2.95,0,*5F
1513058519.41,40240,5.38,72072.3,-2.01,-2.91,-2.83,0,*52
1513058520.63,40241,5.31,72082.3,-1.99,-2.83,-2.83,0,*52
1513058521.83,40242,5.31,72086.3,-2.05,-2.95,-2.87,0,*54
1513058523.03,40243,5.31,72094.0,-2.05,-2.87,-2.87,0,*56
1513058524.22,40244,5.31,72108.3,-2.05,-2.87,-2.87,0,*51
1513058525.42,40245,5.31,72120.5,-2.05,-2.87,-2.95,0,*53
1513058526.61,40246,5.31,72146.8,-2.01,-2.91,-2.95,0,*53
1513058527.8,40247,5.31,72130.0,-2.01,-2.83,-2.79,0,*53
1513058529.05,40248,5.31,72116.8,-2.01,-2.63,-2.75,0,*5E
1513058530.24,40249,5.31,72204.0,-2.01,-2.79,-2.79,0,*58
1513058531.49,40250,5.38,72218.0,-2.01,-2.75,-2.75,0,*50
1513058532.69,40251,5.31,72050.0,-2.05,-2.87,-2.95,0,*56
1513058533.88,40252,5.31,71992.5,-2.01,-3.15,-3.15,0,*52
1513058535.07,40253,5.31,72042.0,-2.01,-3.07,-3.19,0,*5C
1513058536.26,40254,5.31,72078.5,-2.05,-3.11,-3.19,0,*58
1513058537.46,40255,5.31,72050.5,-2.05,-3.07,-2.99,0,*57
1513058538.68,40256,5.31,72080.8,-2.07,-3.19,-3.11,0,*58
1513058539.88,40257,5.31,72090.8,-2.05,-3.11,-3.11,0,*53
1513058541.07,40258,5.38,72100.3,-2.01,-3.03,-3.03,0,*58
1513058542.27,40259,5.38,72100.3,-2.05,-2.99,-2.99,0,*5D
1513058543.47,40260,5.38,72114.3,-2.05,-2.99,-3.07,0,*51
1513058544.66,40261,5.31,72110.0,-2.05,-3.07,-3.07,0,*56
1513058545.86,40262,5.31,72110.8,-2.01,-2.95,-3.03,0,*5F
1513058547.06,40263,5.31,72106.5,-2.05,-2.99,-2.99,0,*54
1513058548.29,40264,5.31,72098.0,-2.07,-2.99,-2.99,0,*51
1513058549.52,40265,5.31,72086.8,-2.07,-2.87,-2.95,0,*53
1513058550.74,40266,5.38,72102.8,-2.07,-2.87,-2.95,0,*50
1513058551.95,40267,5.31,72096.8,-2.05,-2.95,-2.95,0,*50
1513058553.15,40268,5.38,72074.0,-2.05,-2.95,-2.87,0,*5C
1513058554.35,40269,5.38,72110.0,-2.05,-2.87,-2.87,0,*5E
1513058555.54,40270,5.31,72148.5,-2.05,-2.79,-2.87,0,*57
1513058556.74,40271,5.31,72168.5,-2.05,-2.79,-2.79,0,*57
1513058557.98,40272,5.38,72124.8,-2.01,-2.75,-2.75,0,*50
1513058559.2,40273,5.38,72100.0,-2.07,-2.83,-2.87,0,*53
1513058560.4,40274,5.31,72110.5,-2.05,-2.87,-2.95,0,*51
1513058561.6,40275,5.38,72090.3,-2.05,-3.07,-2.99,0,*55
1513058562.8,40276,5.31,72100.3,-2.05,-3.07,-3.07,0,*50
1513058563.99,40277,5.38,72114.5,-2.01,-2.83,-2.83,0,*55
1513058565.17,40278,5.31,72136.5,-2.01,-2.83,-2.83,0,*5A
1513058566.36,40279,5.38,72116.8,-2.01,-2.83,-2.83,0,*5B
1513058567.55,40280,5.31,72130.5,-2.01,-2.79,-2.83,0,*58
1513058568.75,40281,5.31,72140.5,-2.01,-2.79,-2.83,0,*59
1513058569.94,40282,5.31,72116.5,-2.01,-2.79,-2.83,0,*5A
1513058571.13,40283,5.31,72108.0,-2.01,-2.79,-2.79,0,*5E
1513058572.32,40284,5.31,72134.8,-2.05,-2.83,-2.83,0,*5D
1513058573.52,40285,5.38,72154.8,-2.05,-2.79,-2.83,0,*59
1513058574.71,40286,5.31,72140.5,-2.05,-2.79,-2.83,0,*5A
1513058575.96,40287,5.31,72142.0,-2.01,-2.63,-2.67,0,*5E
1513058577.15,40288,5.31,72124.0,-2.01,-2.79,-2.83,0,*50
1513058578.34,40289,5.31,72096.3,-2.01,-2.83,-2.83,0,*54
1513058579.53,40290,5.38,72084.3,-2.01,-2.83,-2.91,0,*5F
1513058580.73,40291,5.31,72126.0,-2.01,-2.95,-2.95,0,*5D
1513058581.92,40292,5.38,72114.8,-2.01,-3.03,-3.03,0,*5E
1513058583.15,40293,5.38,72070.8,-1.99,-3.03,-3.07,0,*59
1513058584.34,40294,5.38,72070.8,-2.01,-2.83,-2.95,0,*5F
1513058585.53,40295,5.31,72114.3,-2.01,-2.83,-2.83,0,*59
1513058586.71,40296,5.38,72134.0,-2.01,-2.91,-2.91,0,*5A
1513058587.9,40297,5.38,72162.3,-2.01,-2.83,-2.91,0,*58
1513058589.08,40298,5.31,72148.8,-2.01,-2.83,-2.79,0,*51
1513058590.33,40299,5.31,72102.5,-2.01,-2.75,-2.75,0,*55
1513058591.55,40300,5.38,72052.0,-2.01,-2.79,-2.75,0,*58
1513058592.74,40301,5.38,72020.8,-2.01,-2.83,-2.79,0,*50
1513058593.94,40302,5.38,72048.8,-2.01,-2.95,-2.95,0,*56
1513058595.13,40303,5.38,72032.3,-2.01,-2.91,-2.83,0,*54
1513058596.31,40304,5.38,72058.5,-2.01,-2.83,-2.91,0,*53
1513058597.51,40305,5.38,72094.0,-2.01,-3.03,-3.03,0,*51
1513058598.7,40306,5.38,72108.3,-2.01,-3.07,-3.07,0,*52
1513058599.89,40307,5.31,72060.5,-2.05,-3.07,-3.07,0,*57
1513058601.09,40308,5.38,72088.3,-2.01,-3.03,-3.07,0,*58
1513058602.29,40309,5.38,72122.3,-2.01,-2.95,-2.95,0,*5D
1513058603.48,40310,5.31,72134.8,-2.05,-3.19,-3.19,0,*51
1513058604.68,40311,5.38,72156.5,-2.05,-3.07,-3.07,0,*50
1513058605.87,40312,5.38,72162.5,-2.01,-2.83,-2.83,0,*57
1513058607.07,40313,5.38,72150.8,-2.05,-2.87,-2.95,0,*51
1513058608.26,40314,5.38,72124.3,-2.05,-2.87,-2.87,0,*55
1513058609.46,40315,5.38,72092.3,-2.05,-2.99,-2.99,0,*54
1513058610.67,40316,5.38,72060.8,-2.05,-2.95,-2.99,0,*5B
1513058611.87,40317,5.38,72108.8,-2.05,-2.95,-2.87,0,*55
1513058613.07,40318,5.31,72126.5,-2.05,-3.07,-3.07,0,*59
1513058614.26,40319,5.38,72120.0,-2.05,-2.87,-2.87,0,*58
1513058615.47,40320,5.31,72126.8,-2.05,-2.95,-2.99,0,*5E
1513058616.7,40321,5.38,72140.0,-2.07,-2.99,-2.99,0,*51
1513058617.89,40322,5.38,72144.5,-2.05,-2.87,-2.87,0,*50
1513058619.09,40323,5.31,72152.8,-2.05,-2.87,-2.79,0,*50
1513058620.28,40324,5.31,72164.3,-2.05,-2.83,-2.83,0,*56
1513058621.47,40325,5.31,72174.0,-2.05,-2.83,-2.83,0,*57
1513058622.67,40326,5.31,72168.8,-2.05,-2.95,-2.87,0,*57
1513058623.87,40327,5.38,72178.5,-2.05,-2.99,-3.07,0,*53
1513058625.06,40328,5.31,72168.5,-2.01,-3.07,-3.03,0,*5A
1513058626.26,40329,5.38,72180.3,-2.01,-3.03,-2.95,0,*51
1513058627.45,40330,5.38,72176.3,-2.05,-2.87,-2.87,0,*53
1513058628.65,40331,5.38,72166.8,-2.05,-2.87,-2.83,0,*56
1513058629.84,40332,5.38,72132.3,-2.05,-2.87,-2.83,0,*55
1513058631.05,40333,5.31,72108.8,-2.05,-2.95,-2.99,0,*5C
1513058632.26,40334,5.38,72126.3,-2.05,-2.95,-2.95,0,*57
1513058633.45,40335,5.31,72124.5,-2.05,-2.87,-3.07,0,*5F
1513058634.64,40336,5.38,72126.8,-2.01,-2.83,-2.83,0,*51
1513058635.84,40337,5.38,72106.0,-2.05,-2.95,-2.87,0,*57
1513058637.04,40338,5.38,72112.8,-2.05,-2.87,-2.87,0,*5B
1513058638.24,40339,5.38,72108.8,-2.05,-2.87,-2.87,0,*5A
1513058639.43,40340,5.31,72118.5,-2.05,-2.87,-2.87,0,*54
1513058640.63,40341,5.31,72200.0,-2.05,-2.87,-2.83,0,*51
1513058641.82,40342,5.38,72210.8,-2.05,-2.79,-2.83,0,*53
1513058643.02,40343,5.31,72118.8,-2.05,-2.83,-2.83,0,*57
1513058644.22,40344,5.38,72074.8,-2.05,-2.95,-2.99,0,*5C
1513058645.42,40345,5.31,72102.5,-2.01,-2.95,-3.03,0,*5B
1513058646.62,40346,5.38,72142.3,-2.01,-2.95,-2.91,0,*52
1513058647.8,40347,5.38,72156.5,-2.01,-2.83,-2.83,0,*57
1513058649.03,40348,5.38,72182.3,-2.01,-2.79,-2.75,0,*54
1513058650.25,40349,5.31,72194.8,-2.01,-2.79,-2.75,0,*55
1513058651.44,40350,5.38,72206.3,-2.05,-2.83,-2.79,0,*50
1513058652.66,40351,5.38,72160.3,-2.05,-2.79,-2.71,0,*5C
1513058653.91,40352,5.31,72174.8,-2.05,-2.67,-2.71,0,*50
1513058655.16,40353,5.38,72188.0,-2.01,-2.67,-2.67,0,*52
1513058656.37,40354,5.38,72172.3,-2.01,-2.67,-2.79,0,*5A
1513058657.61,40355,5.38,72150.3,-2.01,-2.67,-2.75,0,*57
1513058658.83,40356,5.31,72124.8,-1.99,-2.79,-2.79,0,*55
1513058660.01,40357,5.38,72122.0,-2.01,-2.83,-2.79,0,*53
1513058661.2,40358,5.31,72130.8,-2.01,-2.79,-2.79,0,*59
1513058662.39,40359,5.38,72138.8,-2.01,-2.79,-2.79,0,*58
1513058663.61,40360,5.31,72128.0,-1.99,-2.79,-2.79,0,*50
1513058664.83,40361,5.38,72110.8,-1.97,-2.75,-2.87,0,*52
1513058666.01,40362,5.38,72100.5,-2.01,-2.91,-2.91,0,*50
1513058667.2,40363,5.38,72106.8,-2.01,-2.91,-2.95,0,*55
1513058668.39,40364,5.38,72132.0,-2.01,-2.83,-2.91,0,*55
1513058669.59,40365,5.38,72132.0,-2.01,-2.95,-3.03,0,*59
1513058670.78,40366,5.38,72136.0,-2.01,-3.03,-3.03,0,*54
1513058671.97,40367,5.38,72088.5,-2.01,-3.15,-3.15,0,*55
1513058673.17,40368,5.38,72098.5,-2.01,-2.95,-3.07,0,*50
1513058674.37,40369,5.31,72112.0,-2.05,-3.07,-3.07,0,*5F
1513058675.57,40370,5.38,72122.0,-2.05,-2.95,-2.99,0,*5B
1513058676.78,40371,5.38,72144.8,-2.05,-2.95,-3.07,0,*5C
1513058677.98,40372,5.38,72118.3,-2.01,-2.95,-2.95,0,*51
1513058679.16,40373,5.38,72092.5,-2.01,-2.91,-2.91,0,*50
1513058680.36,40374,5.38,72176.5,-2.05,-2.99,-2.99,0,*53
1513058681.56,40375,5.38,72186.8,-2.05,-2.99,-2.99,0,*52
1513058682.76,40376,5.38,72162.0,-2.05,-2.99,-2.87,0,*5E
1513058683.95,40377,5.38,72132.8,-2.01,-2.83,-2.91,0,*57
1513058685.13,40378,5.38,72084.0,-2.01,-2.83,-2.83,0,*5B
1513058686.32,40379,5.38,72126.3,-2.01,-2.91,-2.83,0,*59
1513058687.52,40380,5.38,72138.5,-2.01,-3.03,-3.03,0,*5C
1513058688.72,40381,5.38,72112.3,-2.05,-2.99,-2.99,0,*59
1513058689.92,40382,5.38,72122.8,-2.05,-2.99,-2.95,0,*56
1513058691.14,40383,5.38,72124.5,-2.07,-2.99,-2.99,0,*59
1513058692.34,40384,5.38,72140.3,-2.05,-2.99,-2.99,0,*5C
1513058693.55,40385,5.38,72112.3,-2.05,-2.95,-2.87,0,*5E
1513058694.75,40386,5.38,72122.5,-2.05,-2.99,-2.99,0,*5E
1513058695.94,40387,5.38,72130.8,-2.05,-2.87,-2.87,0,*5F
1513058697.15,40388,5.38,72114.5,-2.05,-2.95,-2.95,0,*50
1513058698.34,40389,5.38,72116.8,-2.05,-2.87,-2.79,0,*50
1513058699.54,40390,5.38,72118.0,-2.05,-2.79,-2.83,0,*5C
1513058700.73,40391,5.38,72136.0,-2.05,-2.79,-2.83,0,*5D
1513058701.92,40392,5.38,72138.5,-2.01,-2.83,-2.83,0,*5F
1513058703.11,40393,5.38,72140.3,-2.01,-2.79,-2.83,0,*5B
1513058704.31,40394,5.38,72136.8,-2.05,-2.87,-2.87,0,*5D
1513058705.51,40395,5.38,72140.3,-2.05,-2.87,-2.95,0,*5F
1513058706.71,40396,5.38,72152.0,-2.05,-2.95,-2.87,0,*5C
1513058707.91,40397,5.38,72176.3,-2.05,-2.87,-2.95,0,*5D
1513058709.11,40398,5.38,72170.3,-2.05,-2.95,-2.87,0,*52
1513058710.31,40399,5.38,72178.8,-2.05,-2.83,-2.87,0,*54
1513058711.5,40400,5.38,72168.3,-2.05,-2.83,-2.87,0,*53
1513058712.7,40401,5.38,72148.8,-2.05,-2.87,-2.87,0,*56
1513058713.9,40402,5.38,72112.3,-2.05,-2.87,-2.95,0,*56
1513058715.09,40403,5.38,72080.8,-2.05,-2.87,-2.87,0,*54
1513058716.29,40404,5.38,72070.5,-2.05,-2.87,-2.87,0,*53
1513058717.48,40405,5.38,72062.8,-2.01,-2.83,-2.83,0,*56
1513058718.66,40406,5.38,72068.3,-2.01,-2.91,-2.91,0,*55
1513058719.86,40407,5.38,72074.0,-2.01,-3.03,-2.95,0,*5A
1513058721.05,40408,5.38,72078.5,-2.01,-3.03,-3.07,0,*5F
1513058722.25,40409,5.38,72086.0,-2.01,-3.15,-3.07,0,*59
1513058723.43,40410,5.38,72078.3,-2.05,-3.19,-3.23,0,*5F
1513058724.63,40411,5.38,72070.5,-2.05,-3.19,-3.11,0,*5F
1513058725.82,40412,5.38,72064.5,-2.01,-3.15,-3.15,0,*50
1513058727.01,40413,5.38,72056.8,-2.05,-3.19,-3.19,0,*55
1513058728.21,40414,5.38,72054.0,-2.05,-3.11,-3.23,0,*53
1513058729.4,40415,5.38,72050.0,-2.05,-3.11,-3.11,0,*53
1513058730.6,40416,5.38,72038.3,-2.05,-3.07,-2.99,0,*56
1513058731.83,40417,5.38,72046.8,-2.07,-2.95,-3.07,0,*59
1513058733.03,40418,5.38,72050.5,-2.05,-2.99,-2.95,0,*52
1513058734.23,40419,5.38,72064.0,-2.05,-2.87,-2.87,0,*5F
1513058735.45,40420,5.38,72076.3,-2.07,-2.87,-2.95,0,*54
1513058736.68,40421,5.38,72102.3,-2.07,-2.87,-2.95,0,*55
1513058737.91,40422,5.38,72106.5,-2.07,-2.95,-2.87,0,*56
1513058739.12,40423,5.38,72110.5,-2.05,-2.95,-2.99,0,*5A
1513058740.34,40424,5.38,72112.5,-2.07,-2.87,-2.87,0,*53
1513058741.54,40425,5.38,72118.5,-2.05,-2.95,-2.87,0,*53
1513058742.76,40426,5.38,72120.5,-2.07,-2.87,-2.87,0,*51
1513058743.96,40427,5.38,72126.3,-2.05,-2.87,-2.87,0,*52
1513058745.15,40428,5.38,72134.3,-2.05,-2.87,-2.87,0,*5D
1513058746.35,40429,5.38,72150.8,-2.05,-2.87,-2.95,0,*5F
1513058747.54,40430,5.38,72164.8,-2.01,-2.83,-2.83,0,*50
1513058748.74,40431,5.38,72178.5,-2.05,-2.87,-2.95,0,*56
1513058749.94,40432,5.38,72154.3,-2.05,-2.87,-2.95,0,*55
1513058751.15,40433,5.38,72156.5,-2.05,-2.95,-2.87,0,*54
1513058752.35,40434,5.38,72150.8,-2.05,-2.99,-2.99,0,*50
1513058753.57,40435,5.38,72134.8,-2.07,-2.87,-2.95,0,*50
1513058754.79,40436,5.38,72112.0,-2.05,-2.55,-2.43,0,*55
1513058756.04,40437,5.38,72138.3,-2.05,-2.71,-2.71,0,*53
1513058757.26,40438,5.38,72130.3,-2.07,-2.79,-2.79,0,*5E
1513058758.46,40439,5.38,72118.3,-2.05,-2.83,-2.83,0,*5D
1513058759.69,40440,5.38,72080.5,-2.07,-2.95,-2.95,0,*51
1513058760.88,40441,5.38,72064.5,-2.05,-3.07,-3.19,0,*5D
1513058762.1,40442,5.38,72086.8,-2.07,-3.11,-3.23,0,*52
1513058763.29,40443,5.38,72116.5,-2.05,-3.07,-3.11,0,*57
1513058764.52,40444,5.38,72116.8,-2.07,-3.07,-3.11,0,*52
1513058765.71,40445,5.38,72112.3,-2.05,-2.99,-3.07,0,*50
1513058766.91,40446,5.38,72126.5,-2.05,-3.07,-3.07,0,*55
1513058768.11,40447,5.38,72142.0,-2.05,-2.99,-2.99,0,*54
1513058769.33,40448,5.38,72160.3,-2.07,-2.87,-2.87,0,*59
1513058770.53,40449,5.38,72182.8,-2.05,-2.87,-2.99,0,*55
1513058771.73,40450,5.38,72174.3,-2.05,-2.95,-2.99,0,*5E
1513058772.93,40451,5.38,72174.0,-2.05,-2.87,-2.95,0,*50
1513058774.14,40452,5.38,72162.0,-2.05,-2.87,-2.95,0,*53
1513058775.34,40453,5.38,72142.3,-2.05,-2.95,-2.95,0,*51
1513058776.54,40454,5.38,72132.0,-2.05,-3.07,-3.07,0,*56
1513058777.73,40455,5.38,72082.3,-2.01,-3.03,-3.07,0,*57
1513058778.93,40456,5.38,72080.3,-2.05,-3.11,-3.11,0,*54
1513058780.15,40457,5.38,72106.3,-2.07,-3.11,-3.11,0,*57
1513058781.34,40458,5.38,72124.0,-2.05,-3.23,-3.19,0,*53
1513058782.53,40459,5.38,72124.3,-2.05,-3.23,-3.31,0,*58
1513058783.75,40460,5.38,72126.8,-2.07,-3.31,-3.31,0,*53
1513058784.97,40461,5.38,72120.0,-2.07,-3.07,-3.23,0,*54
1513058786.16,40462,5.38,72104.8,-2.05,-3.19,-3.19,0,*53
1513058787.38,40463,5.38,72096.5,-2.07,-3.19,-3.19,0,*50
1513058788.58,40464,5.38,72132.3,-2.05,-3.07,-3.07,0,*55
1513058789.8,40465,5.38,72160.0,-2.07,-2.99,-3.07,0,*50
1513058791.02,40466,5.38,72076.0,-2.07,-3.07,-3.07,0,*55
1513058792.24,40467,5.38,72110.5,-2.07,-3.19,-3.23,0,*5D
1513058793.46,40468,5.38,72106.3,-2.07,-2.99,-3.11,0,*5A
1513058794.69,40469,5.38,72098.5,-2.07,-2.99,-2.99,0,*5A
1513058795.88,40470,5.38,72118.3,-2.09,-3.11,-3.15,0,*58
1513058797.11,40471,5.38,72156.3,-2.07,-2.95,-2.99,0,*5F
1513058798.31,40472,5.38,72146.5,-2.05,-2.87,-2.95,0,*51
1513058799.53,40473,5.38,72118.3,-2.07,-2.99,-3.07,0,*57
1513058800.76,40474,5.38,72072.3,-2.07,-3.07,-3.07,0,*56
1513058801.95,40475,5.38,72046.8,-2.05,-3.07,-3.03,0,*51
1513058803.18,40476,5.38,72048.3,-2.07,-3.11,-3.11,0,*54
1513058804.4,40477,5.38,72092.0,-2.07,-3.19,-3.11,0,*5D
1513058805.61,40478,5.38,72100.5,-2.07,-3.23,-3.23,0,*5A
1513058806.83,40479,5.38,72108.3,-2.07,-3.19,-3.19,0,*5B
1513058808.04,40480,5.38,72086.8,-2.07,-3.23,-3.23,0,*5D
1513058809.24,40481,5.38,72118.0,-2.09,-3.15,-3.15,0,*52
1513058810.46,40482,5.38,72152.8,-2.11,-3.03,-3.03,0,*58
1513058811.65,40483,5.38,72142.5,-2.09,-2.99,-2.99,0,*50
1513058812.85,40484,5.38,72154.0,-2.09,-3.11,-3.03,0,*54
1513058814.04,40485,5.38,72164.0,-2.09,-3.03,-3.03,0,*56
1513058815.26,40486,5.38,72166.8,-2.11,-3.03,-3.03,0,*5C
1513058816.51,40487,5.38,72180.8,-2.09,-2.71,-2.75,0,*50
1513058817.73,40488,5.38,72204.5,-2.11,-2.87,-2.87,0,*52
1513058818.92,40489,5.38,72156.5,-2.09,-2.87,-2.91,0,*5D
1513058820.12,40490,5.38,72184.5,-2.09,-3.15,-3.27,0,*53
1513058821.31,40491,5.38,72204.0,-2.09,-3.15,-3.15,0,*53
1513058822.53,40492,5.38,72190.8,-2.07,-2.99,-3.07,0,*58
1513058823.72,40493,5.38,72182.3,-2.09,-3.03,-3.11,0,*52
1513058824.94,40494,5.38,72138.0,-2.11,-3.11,-3.11,0,*5F
1513058826.16,40495,5.38,72114.5,-2.11,-3.15,-3.23,0,*5B
1513058827.38,40496,5.38,72092.3,-2.11,-3.35,-3.35,0,*5D
1513058828.6,40497,5.38,72092.0,-2.09,-3.39,-3.47,0,*5C
1513058829.82,40498,5.38,72114.8,-2.11,-3.35,-3.27,0,*50
1513058831.04,40499,5.38,72156.3,-2.11,-3.15,-3.15,0,*52
1513058832.23,40500,5.38,72140.0,-2.09,-3.11,-3.11,0,*5A
1513058833.43,40501,5.38,72142.0,-2.09,-3.15,-3.15,0,*5B
1513058834.64,40502,5.38,72118.0,-2.11,-3.11,-3.15,0,*55
1513058835.84,40503,5.38,72086.5,-2.09,-3.27,-3.27,0,*59
1513058837.11,40504,5.38,72080.3,-2.11,-3.47,-3.51,0,*50
1513058838.38,40505,5.38,72090.5,-2.11,-3.47,-3.47,0,*56
1513058839.59,40506,5.38,72114.5,-2.11,-3.23,-3.15,0,*50
1513058840.81,40507,5.38,72124.5,-2.13,-3.15,-3.19,0,*5A
1513058842.02,40508,5.38,72128.8,-2.11,-3.11,-3.23,0,*5A
1513058843.24,40509,5.38,72140.0,-2.11,-3.11,-3.15,0,*5E
1513058844.45,40510,5.38,72152.8,-2.11,-2.91,-3.03,0,*58
1513058845.64,40511,5.38,72158.0,-2.09,-2.91,-2.91,0,*5A
1513058846.86,40512,5.38,72158.8,-2.13,-2.87,-2.91,0,*55
1513058848.07,40513,5.38,72164.5,-2.11,-2.87,-2.87,0,*51
1513058849.29,40514,5.38,72170.3,-2.11,-2.83,-2.87,0,*52
1513058850.5,40515,5.38,72198.0,-2.11,-2.91,-2.91,0,*57
1513058851.73,40516,5.38,72164.3,-2.11,-2.99,-2.99,0,*54
1513058852.94,40517,5.38,72122.8,-2.11,-3.23,-3.23,0,*55
1513058854.16,40518,5.38,72136.3,-2.11,-3.35,-3.27,0,*59
1513058855.38,40519,5.38,72138.0,-2.11,-3.23,-3.27,0,*5F
1513058856.57,40520,5.38,72140.8,-2.09,-3.23,-3.27,0,*5C
1513058857.77,40521,5.38,72112.3,-2.09,-3.15,-3.15,0,*59
1513058858.99,40522,5.38,72080.5,-2.11,-3.11,-3.11,0,*53
1513058860.21,40523,5.38,72124.3,-2.11,-3.11,-3.11,0,*52
1513058861.43,40524,5.38,72114.8,-2.11,-2.99,-2.99,0,*55
1513058862.65,40525,5.38,72120.5,-2.11,-3.03,-3.03,0,*54
1513058863.87,40526,5.38,72096.5,-2.11,-3.03,-2.99,0,*55
1513058865.1,40527,5.38,72104.0,-2.11,-2.99,-2.99,0,*56
1513058866.31,40528,5.38,72094.0,-2.11,-2.91,-2.91,0,*59
1513058867.53,40529,5.38,72088.8,-2.11,-2.91,-2.99,0,*50
1513058868.75,40530,5.38,72020.8,-2.11,-3.03,-3.11,0,*53
1513058869.93,40531,5.38,72012.0,-2.09,-3.23,-3.23,0,*58
1513058871.14,40532,5.38,72022.5,-2.11,-3.23,-3.23,0,*52
1513058872.36,40533,5.38,72046.0,-2.11,-3.11,-3.11,0,*53
1513058873.58,40534,5.38,72090.0,-2.13,-3.03,-3.03,0,*56
1513058874.8,40535,5.38,72060.5,-2.13,-3.07,-3.07,0,*57
1513058875.99,40536,5.38,72052.8,-2.09,-2.99,-2.99,0,*5F
1513058877.22,40537,5.38,71998.3,-2.11,-2.99,-2.99,0,*57
1513058878.44,40538,5.38,71992.0,-2.11,-3.11,-3.03,0,*5B
1513058879.66,40539,5.38,72050.0,-2.11,-3.11,-3.11,0,*59
1513058880.88,40540,5.38,72058.0,-2.13,-3.03,-3.07,0,*51
1513058882.1,40541,5.38,72072.0,-2.13,-3.03,-3.07,0,*50
1513058883.31,40542,5.38,72028.3,-2.13,-3.03,-3.15,0,*50
1513058884.53,40543,5.38,72074.0,-2.13,-3.07,-3.07,0,*56
1513058885.75,40544,5.38,72090.8,-2.13,-3.15,-3.15,0,*51
1513058886.97,40545,5.38,72090.3,-2.13,-3.07,-2.95,0,*5A
1513058888.2,40546,5.38,72164.8,-2.13,-2.95,-2.95,0,*53
1513058889.47,40547,5.38,72122.5,-2.11,-2.71,-2.71,0,*50
1513058890.74,40548,5.38,72126.0,-2.11,-2.51,-2.59,0,*57
1513058892.02,40549,5.38,72140.5,-2.11,-2.75,-2.75,0,*5E
1513058893.21,40550,5.38,72140.0,-2.09,-2.87,-2.87,0,*5F
1513058894.4,40551,5.38,72144.3,-2.09,-2.87,-2.87,0,*5E
1513058895.59,40552,5.38,72136.3,-2.09,-2.83,-2.87,0,*59
1513058896.81,40553,5.38,72160.0,-2.11,-2.83,-2.83,0,*55
1513058898.05,40554,5.38,72184.3,-2.09,-2.71,-2.71,0,*5B
1513058899.3,40555,5.38,72166.5,-2.09,-2.71,-2.71,0,*5A
1513058900.58,40556,5.38,72164.0,-2.11,-2.75,-2.71,0,*54
1513058901.77,40557,5.38,72142.0,-2.09,-2.87,-2.87,0,*58
1513058902.98,40558,5.38,72152.0,-2.11,-2.83,-2.87,0,*5A
1513058904.2,40559,5.38,72152.8,-2.09,-2.75,-2.83,0,*5F
1513058905.39,40560,5.38,72144.3,-2.09,-2.83,-2.83,0,*5C
1513058906.58,40561,5.38,72156.3,-2.09,-2.87,-2.87,0,*5D
1513058907.78,40562,5.38,72148.0,-2.09,-2.87,-2.87,0,*5E